Weather in Chkhorotsku

Georgia     42°31′11″N   42°07′25″E
temp.,
°C
wind,
m/s
gust,
m/s
humid.,
%
clouds,
%
prec.,
mm/h
press.,
hPa
HPBL,
m
6 may, thu
thu601:00+10ene22850 0.0 101419
04:00+10ne11820 0.0 101313
07:00+11ne11755 0.0 101215
10:00+19e1355100 0.0 1012398
13:00+24ese34414 0.0 10101085
16:00+25sse22395 0.0 10101557
19:00+20ssw2472100 0.0 1010104
22:00+13sw1290100 0.0 101432
7 may, fri
fri701:00+13se1188100 0.0 101621
04:00+12ese2390100 0.0 101774
07:00+12e1292100 0.0 1019100
10:00+17sse22655 0.0 1019790
13:00+20wsw225218 0.0 10181292
16:00+21wsw335011 0.0 10171315
19:00+17wsw23704 0.0 1018236
22:00+12ne11850 0.0 101910
8 may, sat
sat801:00+11ene11880 0.0 101914
04:00+11ene22850 0.0 101723
07:00+13ne227729 0.0 101534
10:00+21ese125532 0.0 1014357
13:00+26ese2439100 0.0 10121106
16:00+28ese1339100 0.0 10111211
19:00+24n016599 0.0 101111
22:00+18e1170100 0.0 101113
9 may, sun
sun901:00+16ene225285 0.0 101024
04:00+16nnw1149100 0.0 101015
07:00+16ssw4971100 0.0 1013466
10:00+14ese2493100 0.4 1017328
13:00+14sw3798100 5.2 1019428
16:00+12wnw61197100 15.6 1020871
19:00+10w4997100 8.0 1024676
22:00+10wsw3694100 10.6 1026315
10 may, mon
mon1001:00+9w2693100 2.3 1025285
04:00+7wnw019526 3.3 102610
07:00+7ene119597 0.4 102653
10:00+11wsw358122 2.3 1025886
13:00+12wsw457768 2.9 10251310
16:00+12w357974 5.3 1025976
19:00+11ssw018528 1.4 102477
22:00+7ene219378 1.6 102417